STARLINK-2657 (48655 NORAD) Tracking and Keplerian Element Data

This shows tracking and keplerian element data for the satellite.

Feedback or suggestion? Click here.




ElementValue
Catalog48655
NameSTARLINK-2657
Epoch Orbit1045
Epoch Day214.43681482
Epoch Year2021
RAAN104.5544
Inclination53.0558
Eccentricity0.0002097
Argument of Perigee89.9885
Mean Anonmoly270.1344
Mean Motion15.06390714
Decay Rate9.57E-06
L11 48655U 21044T 21214.43681482 .00000957 00000-0 83201-4 0 9994
L22 48655 53.0558 104.5544 0002097 89.9885 270.1344 15.06390714 10451

Live tracking and technical data element details for STARLINK-2657 (NORAD 48655). STARLINK-2657 can be tracked NOW for your location showing map with azimuth and elevation plus other details from your city location.

Track the satellite on the map from your city or location and see movement details for azimuth, elevation, latitude, longitude, range, height, and movement on the map or in text.







IsCatalogInMostPopularTable: catalog: 48655, numindb: 15
Update: records affected: 1



GetName: 48655 STARLINK-2657

Hit Count: updated at: Tue, 03 Aug 2021 20:46:09 GMT